Hourly Weather Berezovka (Zabolot)

Today, 2 July, Thursday

Time Temperature Precipitation Wind Pressure Humidity
00:00 +18°C° 0.3 mm 2 mps 743 mmHg 91%
01:00 +17°C° 0.3 mm 2 mps 743 mmHg 93%
02:00 +17°C° 0 mm 2 mps 743 mmHg 95%
03:00 +17°C° 0.5 mm 2 mps 743 mmHg 96%
04:00 +17°C° 0.5 mm 2 mps 742 mmHg 96%
05:00 +17°C° 0.5 mm 2 mps 742 mmHg 96%
06:00 +18°C° 0.1 mm 3 mps 742 mmHg 94%
07:00 +19°C° 0.1 mm 3 mps 742 mmHg 92%
08:00 +21°C° 0 mm 3 mps 742 mmHg 89%
09:00 +22°C° 0.6 mm 3 mps 742 mmHg 84%
10:00 +24°C° 0.6 mm 3 mps 742 mmHg 79%
11:00 +26°C° 0.6 mm 4 mps 742 mmHg 74%
12:00 +26°C° 0.3 mm 4 mps 742 mmHg 71%
13:00 +26°C° 0.3 mm 5 mps 742 mmHg 69%
14:00 +27°C° 0 mm 5 mps 743 mmHg 66%
15:00 +26°C° 0.2 mm 5 mps 743 mmHg 68%
16:00 +26°C° 0.2 mm 4 mps 743 mmHg 70%
17:00 +26°C° 0.2 mm 4 mps 743 mmHg 72%
18:00 +24°C° 0.2 mm 3 mps 743 mmHg 77%
19:00 +22°C° 0.2 mm 3 mps 743 mmHg 83%
20:00 +20°C° 0.2 mm 2 mps 744 mmHg 88%
21:00 +19°C° 0 mm 2 mps 744 mmHg 90%
22:00 +18°C° 0 mm 2 mps 744 mmHg 92%
23:00 +18°C° 0 mm 1 mps 744 mmHg 94%

Tomorrow, 3 July, Friday

Time Temperature Precipitation Wind Pressure Humidity
00:00 +18°C° 0 mm 1 mps 744 mmHg 94%
01:00 +16°C° 0 mm 1 mps 744 mmHg 93%
02:00 +16°C° 0 mm 1 mps 745 mmHg 92%
03:00 +16°C° 0 mm 1 mps 745 mmHg 92%
04:00 +15°C° 0 mm 1 mps 744 mmHg 91%
05:00 +15°C° 0 mm 2 mps 744 mmHg 90%
06:00 +17°C° 0 mm 2 mps 744 mmHg 86%
07:00 +18°C° 0 mm 2 mps 745 mmHg 81%
08:00 +19°C° 0 mm 2 mps 745 mmHg 77%
09:00 +20°C° 0 mm 2 mps 745 mmHg 75%
10:00 +21°C° 0 mm 2 mps 745 mmHg 73%
11:00 +22°C° 0 mm 3 mps 745 mmHg 71%
12:00 +23°C° 0.2 mm 2 mps 745 mmHg 70%
13:00 +24°C° 0.2 mm 2 mps 745 mmHg 70%
14:00 +25°C° 0.2 mm 2 mps 744 mmHg 69%
15:00 +25°C° 0.5 mm 2 mps 744 mmHg 71%
16:00 +25°C° 0.5 mm 1 mps 744 mmHg 73%
17:00 +24°C° 0.5 mm 1 mps 744 mmHg 74%
18:00 +23°C° 0.5 mm 1 mps 744 mmHg 79%
19:00 +21°C° 0.5 mm 2 mps 744 mmHg 84%
20:00 +20°C° 0.5 mm 2 mps 745 mmHg 89%
21:00 +19°C° 0 mm 2 mps 745 mmHg 91%
22:00 +18°C° 0 mm 2 mps 745 mmHg 93%
23:00 +17°C° 0 mm 3 mps 745 mmHg 95%

Day after tomorrow, 4 July, Saturday

Time Temperature Precipitation Wind Pressure Humidity
00:00 +16°C° 0 mm 3 mps 746 mmHg 96%
01:00 +14°C° 0 mm 3 mps 746 mmHg 96%
02:00 +15°C° 0 mm 2 mps 746 mmHg 97%
03:00 +13°C° 0 mm 3 mps 746 mmHg 97%
04:00 +13°C° 0 mm 3 mps 747 mmHg 97%
05:00 +12°C° 0 mm 3 mps 747 mmHg 97%
06:00 +14°C° 0 mm 3 mps 747 mmHg 94%
07:00 +16°C° 0 mm 2 mps 747 mmHg 90%
08:00 +17°C° 0 mm 2 mps 748 mmHg 87%
09:00 +19°C° 0 mm 2 mps 748 mmHg 77%
10:00 +20°C° 0 mm 2 mps 748 mmHg 66%
11:00 +23°C° 0 mm 2 mps 748 mmHg 56%
12:00 +23°C° 0 mm 2 mps 748 mmHg 54%
13:00 +24°C° 0 mm 2 mps 747 mmHg 52%
14:00 +25°C° 0 mm 2 mps 747 mmHg 50%
15:00 +25°C° 0 mm 3 mps 747 mmHg 53%
16:00 +24°C° 0 mm 3 mps 747 mmHg 56%
17:00 +24°C° 0 mm 3 mps 747 mmHg 60%
18:00 +22°C° 0 mm 3 mps 747 mmHg 66%
19:00 +21°C° 0 mm 2 mps 747 mmHg 73%
20:00 +19°C° 0 mm 2 mps 747 mmHg 79%
21:00 +19°C° 0 mm 2 mps 747 mmHg 82%
22:00 +18°C° 0 mm 2 mps 747 mmHg 85%
23:00 +17°C° 0 mm 2 mps 747 mmHg 88%

5 July, Sunday

Time Temperature Precipitation Wind Pressure Humidity
00:00 +17°C° 0 mm 2 mps 747 mmHg 90%
01:00 +16°C° 0 mm 2 mps 747 mmHg 91%
02:00 +16°C° 0 mm 2 mps 747 mmHg 93%
03:00 +16°C° 0 mm 2 mps 747 mmHg 93%
04:00 +16°C° 0 mm 2 mps 746 mmHg 92%
05:00 +16°C° 0 mm 3 mps 746 mmHg 92%
06:00 +18°C° 0 mm 3 mps 746 mmHg 88%
07:00 +19°C° 0 mm 3 mps 746 mmHg 83%
08:00 +20°C° 0 mm 4 mps 746 mmHg 79%
09:00 +21°C° 0.1 mm 4 mps 746 mmHg 76%
10:00 +22°C° 0.1 mm 5 mps 746 mmHg 72%
11:00 +23°C° 0.1 mm 5 mps 746 mmHg 68%
12:00 +23°C° 0.2 mm 5 mps 746 mmHg 70%
13:00 +22°C° 0.2 mm 5 mps 746 mmHg 73%
14:00 +22°C° 0.2 mm 4 mps 745 mmHg 75%
15:00 +22°C° 0.1 mm 4 mps 745 mmHg 76%
16:00 +22°C° 0.1 mm 4 mps 745 mmHg 77%
17:00 +22°C° 0.1 mm 4 mps 745 mmHg 77%
18:00 +21°C° 0 mm 4 mps 745 mmHg 80%
19:00 +21°C° 0 mm 4 mps 744 mmHg 82%
20:00 +20°C° 0 mm 3 mps 744 mmHg 85%
21:00 +19°C° 0 mm 3 mps 744 mmHg 88%
22:00 +19°C° 0 mm 3 mps 744 mmHg 91%
23:00 +18°C° 0 mm 3 mps 744 mmHg 94%

6 July, Monday

Time Temperature Precipitation Wind Pressure Humidity
00:00 +18°C° 0 mm 3 mps 744 mmHg 94%
01:00 +18°C° 0 mm 4 mps 743 mmHg 94%
02:00 +18°C° 0 mm 4 mps 743 mmHg 94%
03:00 +18°C° 0 mm 4 mps 743 mmHg 94%
04:00 +18°C° 0 mm 4 mps 743 mmHg 93%
05:00 +18°C° 0 mm 4 mps 743 mmHg 93%
06:00 +19°C° 0 mm 5 mps 743 mmHg 89%
07:00 +20°C° 0 mm 5 mps 743 mmHg 85%
08:00 +22°C° 0 mm 5 mps 743 mmHg 81%
09:00 +22°C° 0.2 mm 5 mps 743 mmHg 80%
10:00 +22°C° 0.2 mm 5 mps 743 mmHg 79%
11:00 +22°C° 0.2 mm 5 mps 743 mmHg 78%
12:00 +23°C° 0.1 mm 5 mps 743 mmHg 76%
13:00 +23°C° 0.1 mm 4 mps 743 mmHg 74%
14:00 +25°C° 0.1 mm 4 mps 742 mmHg 72%
15:00 +23°C° 0.1 mm 4 mps 742 mmHg 76%
16:00 +22°C° 0.1 mm 3 mps 742 mmHg 79%
17:00 +23°C° 0.1 mm 2 mps 742 mmHg 82%
18:00 +21°C° 0 mm 2 mps 742 mmHg 83%
19:00 +21°C° 0 mm 2 mps 742 mmHg 85%
20:00 +20°C° 0 mm 2 mps 742 mmHg 86%
21:00 +20°C° 0 mm 2 mps 742 mmHg 89%
22:00 +19°C° 0 mm 2 mps 742 mmHg 91%
23:00 +18°C° 0 mm 3 mps 742 mmHg 94%

7 July, Tuesday

Time Temperature Precipitation Wind Pressure Humidity
00:00 +18°C° 0 mm 3 mps 743 mmHg 93%
01:00 +17°C° 0 mm 3 mps 743 mmHg 92%
02:00 +16°C° 0 mm 3 mps 743 mmHg 91%
03:00 +16°C° 0 mm 3 mps 743 mmHg 88%
04:00 +14°C° 0 mm 3 mps 744 mmHg 86%
05:00 +14°C° 0 mm 3 mps 744 mmHg 84%
06:00 +14°C° 0 mm 3 mps 744 mmHg 81%
07:00 +16°C° 0 mm 3 mps 745 mmHg 78%
08:00 +17°C° 0 mm 3 mps 745 mmHg 75%
09:00 +18°C° 0 mm 3 mps 745 mmHg 70%
10:00 +18°C° 0 mm 3 mps 746 mmHg 65%
11:00 +19°C° 0 mm 3 mps 746 mmHg 60%
12:00 +20°C° 0 mm 3 mps 746 mmHg 59%
13:00 +20°C° 0 mm 3 mps 746 mmHg 58%
14:00 +21°C° 0 mm 3 mps 745 mmHg 57%
15:00 +20°C° 0.1 mm 4 mps 746 mmHg 61%
16:00 +20°C° 0.1 mm 4 mps 746 mmHg 65%
17:00 +19°C° 0.1 mm 4 mps 746 mmHg 69%
18:00 +18°C° 0.1 mm 4 mps 746 mmHg 72%
19:00 +17°C° 0.1 mm 3 mps 746 mmHg 75%
20:00 +16°C° 0.1 mm 3 mps 746 mmHg 77%
21:00 +14°C° 0 mm 3 mps 746 mmHg 79%
22:00 +13°C° 0 mm 3 mps 746 mmHg 81%
23:00 +13°C° 0 mm 2 mps 746 mmHg 82%
Show more